Temp
18 18 19 20 20 21 20 20 19 18 17 16 16 15 16 15 15 15 15 16 15 14 15 15 14 13 13 12 12 11 10 9 9 9 10 9 9 9 8 9 9 7 7
17 17 17 18 20 20 19 18 17 16 16 15 15 14 14 12 14 14 14 14 14 13 14 14 13 12 12 11 10 10 8 7 7 7 6 9 10 8 8 8 7 7 6
17 18 17 16 19 18 18 18 17 16 15 15 15 14 13 12 11 12 12 12 13 13 13 13 12 11 11 10 9 8 8 6 5 6 8 9 8 6 6 7 6 5 4
17 18 17 16 16 18 17 17 16 15 15 15 15 14 13 11 10 11 11 11 12 12 12 12 11 10 9 8 8 7 7 6 5 4 4 4 4 6 6 5 5 3 3
16 17 17 17 17 17 17 16 15 14 14 14 15 13 11 10 10 10 10 10 10 10 10 10 10 9 8 7 7 6 6 5 4 3 3 3 3 2 3 5 5 3 3
16 16 16 15 14 15 15 15 14 13 13 14 13 13 12 10 9 9 9 9 9 9 9 9 9 8 7 7 6 6 5 4 4 3 2 2 3 3 3 3 3 2 2
14 14 14 13 12 12 13 13 13 12 13 13 12 13 12 11 11 9 9 8 8 8 8 8 7 7 7 6 5 5 5 4 3 3 2 2 1 1 1 1 2 2 1
14 13 13 13 12 11 11 11 11 11 11 12 12 11 11 10 9 10 9 9 9 8 7 7 7 6 6 5 5 5 4 3 3 2 2 1 1 0 0 0 0 1 2
14 13 12 12 12 11 11 11 10 10 11 11 11 11 10 10 10 9 9 9 8 7 7 6 6 5 5 5 4 4 3 3 2 2 1 1 0 0 -0 -1 -1 -1 0
13 12 12 12 11 11 10 10 10 10 10 11 11 10 10 10 9 9 8 8 7 7 6 6 5 5 4 4 4 3 3 2 2 1 1 0 0 -1 -1 -1 -1 -2 -1
13 12 11 10 9 8 9 8 9 9 9 9 10 10 9 9 9 8 7 7 7 6 6 5 5 4 4 3 3 3 2 1 1 1 -0 -0 -1 -1 -1 -2 -2 -2 -2
11 10 9 8 8 8 8 8 8 7 8 8 8 9 8 8 8 7 7 7 6 5 5 4 4 4 3 3 3 2 1 1 0 -0 -1 -1 -2 -2 -2 -2 -2 -2 -2
8 8 8 8 8 7 7 7 7 6 7 8 8 7 7 7 7 6 6 6 5 4 4 4 3 3 3 2 1 1 0 0 -0 -1 -1 -2 -2 -2 -2 -3 -3 -3 -3
8 8 8 7 7 7 7 6 5 6 6 7 7 7 6 7 6 6 5 5 4 4 4 3 3 2 2 1 1 0 -0 -0 -1 -1 -2 -2 -3 -3 -3 -3 -3 -2 -2
8 8 7 7 6 6 6 5 5 6 6 6 6 6 6 6 5 5 4 4 4 3 3 2 2 2 1 1 -0 -0 -0 -1 -1 -2 -2 -3 -3 -3 -2 -2 -2 -2 -2
9 7 7 7 6 6 5 5 4 5 6 6 5 5 5 5 4 4 3 3 3 3 2 2 1 1 0 0 -1 -0 -1 -1 -2 -2 -2 -3 -3 -3 -3 -3 -3 -2 -2
9 8 7 7 6 5 5 5 4 5 6 5 4 4 4 4 4 3 3 3 2 2 2 1 1 0 -0 -1 -1 -1 -1 -2 -2 -3 -3 -3 -3 -3 -4 -4 -3 -3 -3
9 8 7 6 5 5 4 4 5 5 5 4 4 4 4 3 3 3 3 2 2 1 1 0 -0 -1 -1 -2 -2 -2 -2 -3 -3 -3 -3 -3 -4 -4 -3 -3 -3 -4 -3
9 8 7 5 5 4 4 4 4 4 4 3 4 4 4 3 3 3 2 1 1 1 0 -1 -1 -1 -2 -2 -3 -2 -2 -3 -3 -3 -3 -3 -3 -3 -2 -3 -4 -3 -4
7 6 5 5 4 4 4 4 3 3 3 3 3 3 3 3 2 2 1 1 0 -0 -1 -1 -2 -2 -2 -3 -3 -3 -3 -3 -3 -3 -3 -3 -3 -3 -3 -3 -3 -4 -5
6 5 5 5 4 4 4 3 3 2 3 3 3 3 3 2 2 1 1 0 -0 -1 -1 -2 -2 -2 -3 -4 -4 -3 -3 -3 -3 -3 -3 -4 -4 -3 -3 -4 -4 -5 -4
4 4 4 3 3 4 4 2 1 2 3 3 3 2 2 1 1 1 -0 -1 -1 -2 -2 -3 -3 -3 -3 -4 -4 -3 -3 -3 -3 -3 -4 -4 -4 -4 -5 -5 -6 -5 -5
3 3 3 2 2 3 4 1 1 3 3 2 1 1 1 1 -0 -1 -1 -1 -2 -3 -3 -4 -4 -4 -4 -4 -4 -4 -4 -3 -3 -4 -4 -4 -5 -6 -6 -7 -6 -6 -7
2 2 2 1 0 2 3 2 2 3 2 1 1 0 0 -1 -1 -1 -2 -2 -3 -4 -4 -4 -4 -4 -5 -5 -5 -4 -4 -4 -4 -4 -5 -6 -6 -7 -7 -8 -7 -7 -7
2 2 1 -0 -1 1 2 2 2 3 1 1 -0 -1 -1 -1 -1 -2 -2 -3 -3 -4 -3 -4 -4 -4 -4 -4 -4 -4 -4 -4 -4 -4 -6 -7 -7 -8 -8 -8 -8 -8 -8
1 -0 -1 -1 -1 1 1 1 2 3 2 -0 -1 -1 -1 -2 -2 -3 -3 -3 -4 -4 -4 -5 -5 -5 -5 -5 -5 -4 -4 -4 -5 -6 -7 -8 -8 -8 -8 -8 -8 -8 -8
Height
737 735 734 735 737 738 738 740 742 744 747 750 756 764 768 774 780 786 789 793 795 800 800 801 804 807 809 808 809 810 809 808 806 804 800 799 798 798 799 799 799 799 798
730 730 729 729 731 732 734 736 738 742 744 747 751 758 765 773 778 783 788 792 794 799 800 801 804 807 808 809 809 809 809 809 808 806 804 802 799 797 797 795 796 797 795
720 721 722 723 724 727 730 731 734 739 741 744 747 757 766 774 780 786 788 792 794 798 800 802 804 806 808 808 809 809 809 809 809 807 807 804 803 803 795 794 794 794 793
712 712 714 716 718 719 725 726 731 735 738 742 745 749 757 767 776 781 786 791 794 797 800 802 804 806 807 808 810 810 809 809 808 808 808 808 808 805 797 794 793 792 791
702 702 704 707 709 712 718 721 727 733 736 740 745 750 758 765 773 780 785 789 793 797 800 801 803 806 808 809 809 809 809 808 808 808 808 807 807 807 806 793 789 788 786
696 696 699 702 705 708 714 720 724 731 735 740 744 748 753 761 770 779 783 789 792 796 798 801 803 805 807 808 808 809 808 807 806 807 806 806 806 805 804 798 791 787 780
692 693 695 698 701 705 709 715 721 728 734 740 744 748 754 759 765 774 779 785 790 794 797 801 803 804 806 807 807 807 807 806 806 805 804 804 804 803 801 798 791 783 778
689 688 688 692 695 698 704 710 717 725 733 739 743 749 755 761 767 773 779 783 788 792 797 800 802 804 805 805 805 805 805 804 804 803 802 802 801 800 799 797 792 778 772
680 680 684 688 690 695 698 704 711 721 731 739 743 749 756 762 768 775 780 783 787 791 796 799 801 803 803 804 803 803 803 802 801 801 800 799 799 797 795 793 791 787 768
676 677 678 683 688 693 699 705 711 718 728 737 744 749 757 765 770 775 780 783 787 791 795 798 800 801 802 802 801 801 800 800 799 799 797 796 795 793 790 788 786 784 778
670 673 676 682 687 693 700 706 712 718 728 736 743 750 759 766 772 776 781 784 786 791 795 798 799 800 800 800 800 799 798 798 797 796 794 792 791 788 786 783 781 777 774
670 673 678 683 687 694 702 709 716 722 730 737 745 753 759 766 772 777 781 785 787 792 795 797 798 799 799 798 797 796 796 795 793 792 790 788 786 784 781 778 775 771 767
677 678 680 685 690 696 703 711 717 725 733 740 747 755 761 767 773 778 782 786 789 792 795 796 797 797 796 796 795 794 793 792 790 788 786 784 782 779 776 773 769 765 760
680 681 683 688 694 699 706 713 720 728 736 743 751 757 763 768 774 779 783 787 790 792 794 795 794 794 794 793 792 792 790 788 786 784 782 780 777 774 771 767 763 758 753
680 683 687 691 697 703 710 716 722 731 739 746 754 761 765 770 775 780 785 788 790 791 793 792 792 793 792 791 790 789 786 784 782 780 778 775 773 770 766 762 757 753 747
680 686 690 694 699 705 711 718 726 733 741 748 756 763 767 772 777 782 786 788 789 791 791 791 791 791 790 788 787 786 783 781 779 776 773 769 766 762 760 756 751 747 740
679 686 691 697 703 708 713 721 729 736 743 751 759 764 768 773 778 783 786 787 789 790 790 789 790 789 787 785 784 782 780 777 774 770 767 764 761 757 752 747 743 739 735
679 686 693 700 707 712 719 724 732 740 746 754 760 765 769 774 779 783 785 787 788 788 788 788 788 786 784 782 781 778 775 772 770 766 762 758 754 750 746 739 734 730 727
680 687 695 703 709 716 721 727 737 744 751 757 761 766 771 776 780 783 785 786 787 787 787 787 785 783 781 779 777 774 771 768 765 761 757 754 749 745 739 734 728 723 719
682 688 698 706 713 721 724 732 742 748 754 758 763 769 773 777 780 783 784 785 786 786 785 784 783 781 778 775 773 771 767 763 760 756 752 749 745 738 733 729 723 717 712
687 694 702 710 716 722 729 738 746 751 756 761 766 771 775 778 781 783 784 785 785 784 783 782 780 778 775 772 770 767 764 760 755 751 746 742 738 733 728 724 719 714 707
694 700 706 715 722 727 733 742 748 754 759 763 768 772 776 779 781 783 784 784 784 783 781 779 776 774 771 769 766 764 761 757 752 747 742 737 733 729 724 719 714 709 704
702 707 711 719 728 734 737 744 753 757 762 766 770 773 777 780 782 783 784 783 782 781 780 777 774 771 768 765 762 760 756 752 747 743 738 733 728 723 718 714 709 705 700
710 714 719 726 733 739 744 749 756 761 764 767 772 776 779 781 782 783 783 782 782 780 778 775 772 769 766 762 759 755 751 747 743 738 733 729 724 719 714 709 705 701 697
718 721 725 732 740 745 751 756 760 764 767 771 775 778 780 781 782 782 782 781 780 779 777 774 771 767 763 760 757 753 748 743 739 734 730 725 720 715 710 706 701 697 692
724 728 735 740 747 752 757 762 765 768 770 774 777 779 781 781 781 781 780 780 778 776 774 772 769 765 761 758 754 749 745 740 736 731 727 723 719 714 709 704 698 693 688
Wind_Speed
15 20 24 22 18 19 18 18 20 25 28 31 32 27 28 26 26 27 27 24 21 18 17 15 12 9 6 8 7 6 8 13 17 9 9 4 4 2 6 8 14 6 13
14 12 18 19 20 21 19 18 20 25 28 30 25 23 31 26 28 28 25 23 20 16 16 14 12 9 8 9 9 9 6 9 15 7 2 4 2 4 8 11 5 13 11
17 16 13 18 21 21 24 21 22 26 29 32 32 30 28 29 25 25 24 21 20 18 15 14 12 10 9 9 9 10 9 6 9 13 5 2 2 7 6 7 9 9 15
18 19 14 15 22 28 25 22 23 28 30 33 36 43 30 26 21 30 27 24 20 18 15 13 11 10 9 9 9 9 9 7 6 4 6 2 2 3 5 4 10 7 21
17 19 16 22 27 27 27 25 25 28 31 34 37 33 28 23 32 31 28 25 22 18 15 13 11 10 9 9 8 7 7 7 5 4 3 2 4 3 5 8 11 22 20
14 14 13 17 16 25 25 25 28 28 31 34 35 36 39 37 36 33 30 26 23 19 15 13 11 10 8 7 6 6 6 6 5 4 3 2 3 4 6 6 15 18 17
9 9 10 11 16 23 27 27 28 28 30 32 33 34 35 39 41 36 34 30 24 20 16 13 11 9 7 6 5 5 6 6 5 5 5 5 5 7 10 14 17 11 24
7 9 12 11 19 23 27 26 29 29 29 30 31 31 34 35 35 34 32 26 23 20 16 13 10 8 6 4 4 5 6 6 7 6 8 8 8 9 11 13 17 14 12
10 11 11 14 19 22 27 31 32 30 31 31 32 31 32 33 35 32 27 25 22 19 15 11 9 6 4 3 5 6 6 7 6 7 9 10 11 13 13 14 14 15 12
9 9 11 14 19 20 21 25 30 33 32 32 32 33 35 35 33 30 27 24 21 17 14 10 7 5 3 4 5 7 7 7 9 9 11 12 13 14 15 15 16 17 21
10 9 10 13 17 20 23 24 30 34 32 34 35 38 37 33 30 28 24 22 19 15 12 9 6 3 3 4 6 7 7 9 10 11 11 13 14 14 15 16 17 19 21
3 7 10 14 20 21 22 24 27 30 33 37 40 38 36 32 29 26 22 19 17 14 10 7 4 3 3 5 7 7 8 10 11 12 13 14 14 16 17 18 19 20 22
6 9 12 12 16 21 23 25 28 31 36 38 39 36 34 31 27 24 21 17 15 12 9 5 3 3 5 5 6 7 9 11 12 13 14 15 16 17 17 18 20 22 24
7 9 10 12 17 22 24 25 28 33 37 38 37 35 31 29 26 22 19 16 13 10 7 4 3 4 6 7 8 9 12 12 13 15 17 17 16 18 19 20 21 21 25
8 9 11 12 16 21 23 26 30 35 37 36 34 31 29 26 24 21 18 15 11 8 5 3 4 6 7 9 10 11 14 15 15 17 19 16 18 20 21 23 24 26 26
9 11 12 14 15 22 24 27 29 32 36 34 33 30 28 25 22 19 16 12 9 6 4 3 5 7 10 11 10 12 13 15 14 17 18 19 22 21 21 24 25 26 29
12 13 14 13 17 22 27 27 30 35 34 33 30 28 26 23 19 16 13 10 7 4 3 5 7 10 11 11 12 13 14 14 16 18 20 21 19 22 22 25 27 29 22
12 13 12 16 20 24 25 32 33 32 32 30 28 26 23 21 17 14 11 8 5 3 4 6 9 11 12 12 13 15 14 15 17 20 22 20 21 21 25 30 25 24 27
11 12 18 21 24 26 30 32 29 30 30 28 26 23 21 19 16 12 9 6 4 4 6 8 10 12 14 14 14 15 15 16 18 21 20 19 21 25 29 27 27 29 28
17 20 23 23 24 24 31 30 25 26 25 26 24 21 18 16 13 10 7 4 4 5 8 9 10 13 14 15 15 15 16 17 19 20 18 19 23 28 27 29 27 24 29
20 23 23 22 23 28 31 25 24 21 26 26 23 20 16 14 11 8 5 3 4 7 9 12 14 14 13 16 15 16 17 18 21 21 23 22 26 28 30 29 25 24 29
17 21 22 21 22 28 31 24 24 27 27 25 22 18 15 12 9 6 4 4 7 9 11 13 17 17 18 17 16 17 17 20 22 22 23 25 28 30 29 25 23 25 25
16 19 24 24 22 24 31 29 28 29 27 23 20 17 13 9 6 4 4 6 8 10 11 12 13 16 17 20 19 17 19 22 22 21 25 27 27 27 22 20 23 21 19
16 22 25 22 21 26 29 33 30 27 24 22 18 14 10 7 5 4 5 7 9 10 11 13 15 17 18 17 17 18 21 22 19 22 19 23 24 20 20 20 18 19 19
19 21 23 23 23 31 32 29 26 23 22 19 15 11 8 5 4 5 6 8 10 10 14 14 15 17 18 18 22 23 24 23 24 26 21 20 19 20 20 20 21 21 21
22 24 24 27 26 31 28 23 20 19 20 17 12 8 6 4 5 7 9 9 9 11 11 13 14 17 18 20 22 22 22 25 23 22 17 18 18 19 21 22 24 24 23
Wind_Direction
257 260 261 261 261 256 243 229 214 204 195 186 175 172 173 170 171 171 168 169 166 163 155 145 137 125 102 72 62 55 40 25 15 4 359 20 15 217 241 320 320 325 334
251 248 255 254 247 242 222 211 203 196 192 180 171 168 166 161 160 160 158 158 156 156 146 139 129 112 93 82 68 61 54 38 31 22 20 1 339 20 315 320 346 326 332
240 241 231 225 228 221 214 202 197 192 188 184 172 160 153 149 144 150 147 147 147 147 138 130 120 109 95 84 73 62 61 61 44 51 35 337 330 331 309 298 311 324 324
235 239 228 216 218 221 212 198 195 192 188 185 174 164 158 152 159 156 149 144 145 139 133 125 116 107 96 90 79 66 59 56 48 44 39 58 278 319 309 288 291 299 315
232 231 226 215 218 213 201 192 188 189 185 183 176 160 150 153 156 150 145 141 137 137 131 122 116 111 106 94 81 67 53 50 59 50 9 353 311 257 259 303 305 312 313
241 241 229 220 207 200 189 185 183 185 182 181 172 169 163 154 149 150 147 144 141 136 129 126 122 115 107 95 77 56 42 40 35 20 355 314 290 287 287 290 306 303 313
242 225 201 191 180 179 179 178 180 177 181 181 174 171 165 160 159 158 153 148 141 138 134 132 125 118 105 89 67 41 25 17 3 343 333 308 258 276 288 295 301 300 309
247 235 211 192 185 176 173 170 172 169 174 173 169 170 165 158 158 159 154 146 143 139 136 133 126 117 104 75 45 22 7 352 338 327 324 301 277 289 287 291 308 312 300
229 221 204 196 181 176 172 169 162 159 167 170 169 165 167 163 157 151 148 143 140 136 137 133 128 116 91 49 19 4 346 338 334 323 316 307 296 293 289 280 288 297 306
249 219 196 186 178 170 162 157 159 154 162 167 165 160 159 155 150 147 145 142 138 137 137 134 124 109 72 22 359 349 340 333 326 321 316 312 307 301 297 286 283 281 285
270 215 181 160 151 145 144 144 149 150 150 156 155 152 149 147 146 144 142 139 136 136 136 132 121 98 44 2 349 344 336 325 320 321 316 311 312 303 301 296 289 284 283
261 157 144 139 138 135 137 138 137 138 146 148 148 146 144 144 144 140 139 139 136 136 134 127 113 69 21 358 348 338 325 320 320 321 319 316 316 308 304 298 293 290 289
119 127 133 139 138 133 134 133 133 135 143 145 144 143 143 144 141 140 139 139 137 133 129 120 89 39 8 353 340 323 321 321 318 321 319 316 314 308 305 302 298 292 288
151 138 132 132 133 131 131 128 126 138 142 143 142 143 144 142 141 139 139 138 135 129 120 98 52 16 354 338 334 330 325 319 314 318 319 315 310 308 307 302 296 296 296
156 146 138 132 130 127 126 127 131 140 145 142 143 143 141 140 139 138 138 134 128 117 104 70 26 356 341 338 330 327 320 315 313 315 316 312 313 308 304 302 304 303 299
156 142 137 136 135 134 133 131 134 139 146 143 142 143 141 139 138 137 135 129 120 110 85 35 1 344 340 336 329 322 316 316 312 312 312 312 313 308 304 305 304 302 300
151 147 141 138 136 137 138 136 138 145 144 144 144 145 141 137 137 136 133 126 120 100 51 10 345 341 340 337 327 324 317 314 311 313 312 311 305 304 306 303 303 300 299
144 141 136 130 132 132 133 137 141 144 143 143 144 142 140 136 137 135 132 128 107 60 20 355 341 338 340 335 327 322 314 315 314 314 312 304 301 305 310 310 311 312 309
139 133 135 133 134 137 138 136 137 141 142 142 143 143 142 137 136 134 131 115 72 26 358 345 342 338 336 336 328 326 317 314 314 311 310 308 309 313 315 318 316 312 308
130 128 131 131 131 136 139 134 135 139 139 143 140 140 138 136 137 131 117 86 37 358 347 345 342 342 334 335 328 325 320 316 315 314 311 308 316 318 318 319 317 313 308
119 121 128 134 135 138 140 132 136 132 140 137 134 134 135 133 126 117 95 59 7 358 347 342 343 340 340 335 330 328 323 318 315 317 318 318 318 318 320 317 314 306 308
105 114 114 116 128 140 139 128 123 138 137 134 132 130 128 121 114 105 80 27 3 354 350 340 336 340 342 342 331 326 322 320 321 318 318 314 318 320 317 314 312 313 315
103 112 115 111 119 134 139 123 134 139 135 133 128 124 121 117 111 80 43 11 358 349 344 338 330 332 332 333 332 323 322 322 320 317 314 317 318 317 316 316 315 316 316
105 114 112 108 101 125 130 131 139 139 135 127 125 125 121 110 83 40 15 0 351 346 341 336 330 325 323 322 321 321 323 320 320 320 320 318 317 314 314 319 320 319 317
101 105 105 104 105 122 127 133 136 137 128 126 125 120 109 86 49 17 7 356 356 346 333 329 324 319 318 321 323 325 319 323 325 324 319 320 323 322 324 322 321 321 321
102 98 101 105 111 120 124 128 134 136 131 123 119 109 92 58 23 8 359 4 354 345 336 325 322 319 316 321 324 323 326 325 324 322 318 319 320 320 320 318 316 317 317